Regional Weather Roundup
Issued by NWS

Home | Current Version | Previous Version | Graphics & Text | Print | Product List | Glossary On
Versions: 1 2 3 4 5 6 7 8 9 10 11 12 13 14 15 16 17 18 19 20 21 22 23 24 25 26 27 28 29 30 31 32 33 34 35 36 37 38 39 40 41 42 43 44 45 46 47 48 49 50
000
ASUS43 KBIS 050410
RWRND

NORTH DAKOTA REGIONAL WEATHER ROUNDUP
NATIONAL WEATHER SERVICE BISMARCK ND
1100 PM CDT FRI SEP 04 2015

NOTE: "FAIR" INDICATES FEW OR NO CLOUDS BELOW 12,000 FEET WITH NO
SIGNIFICANT WEATHER AND/OR OBSTRUCTIONS TO VISIBILITY.


NDZ001>003-009>011-017-050500-
NORTHWEST NORTH DAKOTA

CITY           SKY/WX    TMP DP  RH WIND       PRES   REMARKS
WILLISTON      CLOUDY    63  57  81 NE13      29.93R
MINOT          CLOUDY    60  59  96 N9        29.90R FOG
MINOT AFB      DRIZZLE   60  60 100 N8        29.89S
$$

NDZ018>021-031>035-040>046-050500-
SOUTHWEST NORTH DAKOTA

CITY           SKY/WX    TMP DP  RH WIND       PRES   REMARKS
BISMARCK       CLEAR     72  67  84 CALM      29.82R
DICKINSON      CLOUDY    63  59  87 NE13      29.85F
GARRISON         N/A     65  60  84 NE13G20   29.87S
HETTINGER ARPT CLEAR     70  56  61 E10       29.83R
$$

NDZ004>008-012>016-024-026-027-054-050500-
NORTHEAST NORTH DAKOTA

CITY           SKY/WX    TMP DP  RH WIND       PRES   REMARKS
GRAND FORKS    PTCLDY    67  66  97 N6        29.83S
GRND FRKS AFB  MOCLDY    66  66 100 N6        29.85R FOG
DEVILS LAKE    CLEAR     66  61  82 N7        29.86R
$$

NDZ022-023-025-028>030-036>039-047>053-050500-
SOUTHEAST NORTH DAKOTA

CITY           SKY/WX    TMP DP  RH WIND       PRES   REMARKS
FARGO          CLEAR     77  71  82 SE9       29.82R
JAMESTOWN      CLEAR     66  64  93 CALM      29.83S FOG
$$



USA.gov is the U.S. government's official web portal to all federal, state and local government web resources and services.